EW8368 Hermosillo MX current weather conditions

sailwx.info

Air temperature 21.7° C
Dewpoint 16.8° C

Last reported at 2020-May-31 12:00 UTC.
Time now 2020-May-31 12:31 UTC

Location: N 29°00' W 111°29'.
View on Google Maps.

See reports from other nearby stations

  
Tides and Currents Weather Stations Pressure Air Temp Water Temp Dewpoint Dewpoint Depression Visibility Wind Speed Wind Dir Waves Ship Positions
date/time (UTC)wind fromknots sea level pressurealtimeterstation pressurevisibilityair tempwater tempwave heightnotes
2020-May-31 12:10 090 0 gusting 0 21.7
2020-May-31 12:00 21.7
2020-May-31 11:50 21.7
2020-May-31 11:40 21.7
2020-May-31 11:30 090 1 gusting 1 21.7
2020-May-31 11:20 090 0 gusting 1 22.2
2020-May-31 11:10 090 1 gusting 1 22.2
2020-May-31 11:00 090 1 gusting 2 22.8
2020-May-31 10:50 090 1 gusting 1 22.8
2020-May-31 10:40 090 1 gusting 2 22.8
2020-May-31 10:30 090 1 gusting 2 22.8
2020-May-31 10:20 067 0 gusting 1 22.8
2020-May-31 10:10 22.8
2020-May-31 10:00 067 1 gusting 1 22.8
2020-May-31 09:50 067 0 gusting 1 22.8
2020-May-31 09:40 067 0 gusting 1 22.8
2020-May-31 09:30 22.8
2020-May-31 09:20 22.8
2020-May-31 09:10 23.3
2020-May-31 09:00 067 0 gusting 0 22.8
2020-May-31 08:50 067 1 gusting 1 22.8
2020-May-31 08:40 067 1 gusting 1 22.8
2020-May-31 08:30 067 1 gusting 2 23.3
2020-May-31 08:20 067 1 gusting 2 23.9
2020-May-31 08:10 067 1 gusting 2 23.9
2020-May-31 08:00 067 1 gusting 1 23.9
2020-May-31 07:50 090 1 gusting 2 24.4
2020-May-31 07:40 090 0 gusting 1 25.0
2020-May-31 07:30 112 1 gusting 2 25.0
2020-May-31 07:20 135 1 gusting 2 25.0
2020-May-31 07:10 180 1 gusting 2 25.0
2020-May-31 07:00 135 2 gusting 3 25.0
2020-May-31 06:50 135 3 gusting 4 25.6
2020-May-31 06:40 135 2 gusting 4 25.6
2020-May-31 06:30 135 2 gusting 4 25.0
2020-May-31 06:20 135 2 gusting 4 25.0
2020-May-31 06:10 135 2 gusting 3 25.0
2020-May-31 06:00 135 1 gusting 3 25.0
2020-May-31 05:50 135 1 gusting 1 25.6
2020-May-31 05:40 157 1 gusting 3 25.6
2020-May-31 05:30 135 1 gusting 2 25.6
2020-May-31 05:20 112 1 gusting 2 25.6
2020-May-31 05:10 135 1 gusting 1 25.6
2020-May-31 05:00 135 1 gusting 2 25.6
2020-May-31 04:50 157 1 gusting 1 25.6
2020-May-31 04:40 26.1
2020-May-31 04:30 157 0 gusting 1 26.7
2020-May-31 04:20 157 0 gusting 1 27.2
2020-May-31 04:10 157 1 gusting 1 27.8
2020-May-31 04:00 202 2 gusting 4 28.3
2020-May-31 03:50 157 3 gusting 5 28.3
2020-May-31 03:40 180 2 gusting 5 28.9
2020-May-31 03:30 180 3 gusting 5 28.9
2020-May-31 03:20 202 2 gusting 4 29.4
2020-May-31 03:10 202 3 gusting 5 30.0
2020-May-31 03:00 202 3 gusting 4 30.6
2020-May-31 02:50 202 3 gusting 5 31.1
2020-May-31 02:40 225 3 gusting 4 31.7
2020-May-31 02:30 202 5 gusting 6 31.7
2020-May-31 02:20 202 5 gusting 9 32.2
2020-May-31 02:10 202 4 gusting 6 33.3
2020-May-31 02:00 33.9
2020-May-31 01:50 34.4
2020-May-31 01:40 35.6
2020-May-31 01:30 35.6
2020-May-31 01:20 36.1
2020-May-31 01:10 36.1
2020-May-31 01:00 36.1
2020-May-31 00:50 36.1
2020-May-31 00:40 36.7
2020-May-31 00:30 36.7
2020-May-31 00:20 36.7
2020-May-31 00:10 37.2
2020-May-31 00:00 37.2
2020-May-30 23:50 37.2
2020-May-30 23:40 37.8
2020-May-30 23:30 37.8
2020-May-30 23:20 37.8
2020-May-30 23:10 37.8
2020-May-30 23:00 38.3
2020-May-30 22:50 38.3
2020-May-30 22:40 37.8
2020-May-30 22:30 38.3
2020-May-30 22:20 38.3
2020-May-30 22:10 38.3
2020-May-30 22:00 37.8
2020-May-30 21:50 38.3
2020-May-30 21:40 38.3
2020-May-30 21:30 38.3
2020-May-30 21:20 38.3
2020-May-30 21:10 38.9
2020-May-30 21:00 38.3
2020-May-30 20:50 38.3
2020-May-30 20:40 38.3
2020-May-30 20:30 38.3
2020-May-30 20:20 38.3
2020-May-30 20:10 37.8
2020-May-30 20:00 38.3
2020-May-30 19:50 38.3
2020-May-30 19:40 37.8
2020-May-30 19:30 37.8
2020-May-30 19:20 37.8
2020-May-30 19:10 37.2
2020-May-30 19:00 37.2
2020-May-30 18:50 37.2
2020-May-30 18:40 36.7
2020-May-30 18:30 36.7
2020-May-30 18:20 36.1
2020-May-30 18:10 36.1
2020-May-30 18:00 35.6
2020-May-30 17:50 35.6
2020-May-30 17:40 35.6
2020-May-30 17:30 35.0
2020-May-30 17:20 35.0
2020-May-30 17:10 33.9
2020-May-30 17:00 33.9
2020-May-30 16:50 33.3
2020-May-30 16:40 32.8
2020-May-30 16:30 32.2
2020-May-30 16:20 32.2
2020-May-30 16:10 31.7
2020-May-30 16:00 31.1
2020-May-30 15:50 30.6
2020-May-30 15:40 30.6
2020-May-30 15:30 30.0
2020-May-30 15:20 29.4
2020-May-30 15:10 28.9
2020-May-30 15:00 28.3
2020-May-30 14:50 27.2
2020-May-30 14:40 27.2
2020-May-30 14:30 26.7
2020-May-30 14:20 26.7
2020-May-30 14:10 26.1
2020-May-30 14:00 25.6
2020-May-30 13:50 24.4
2020-May-30 13:40 23.3
2020-May-30 13:30 22.8
2020-May-30 13:20 22.2
2020-May-30 13:10 21.7
2020-May-30 13:00 21.1
2020-May-30 12:50 20.6
2020-May-30 12:40 20.6
2020-May-30 12:30 045 0 gusting 1 20.6
2020-May-30 12:20 045 0 gusting 1 20.6
2020-May-30 12:10 045 0 gusting 1 21.1
2020-May-30 12:00 067 0 gusting 1 21.1
2020-May-30 11:50 21.1
2020-May-30 11:40 21.7
2020-May-30 11:30 21.7
2020-May-30 11:20 090 1 gusting 1 21.7